Temp
-8 -8 -8 -7 -7 -7 -7 -7 -7 -7 -8 -6 -6 -5 -5 -6 -5 -5 -6 -6 -6 -7 -7 -7 -7 -7 -7 -7 -7 -7 -7 -7 -7 -7 -8 -8 -9 -8 -8 -9 -9 -9 -9 -9
-7 -7 -8 -7 -7 -7 -7 -7 -7 -7 -7 -7 -6 -5 -5 -6 -6 -6 -6 -7 -7 -7 -7 -8 -8 -7 -7 -7 -7 -7 -7 -7 -7 -7 -8 -8 -8 -8 -8 -8 -9 -9 -9 -9
-7 -8 -7 -7 -7 -8 -7 -7 -7 -7 -7 -7 -7 -5 -5 -6 -6 -7 -7 -7 -7 -8 -8 -8 -8 -8 -8 -7 -7 -7 -7 -7 -7 -8 -8 -8 -8 -8 -8 -9 -9 -9 -9 -9
-7 -8 -8 -8 -8 -8 -7 -8 -8 -8 -8 -7 -7 -5 -5 -6 -6 -6 -7 -7 -8 -8 -8 -8 -8 -8 -8 -8 -8 -8 -8 -7 -7 -8 -8 -7 -8 -8 -9 -9 -9 -9 -9 -9
-7 -7 -7 -8 -8 -8 -7 -8 -8 -8 -8 -7 -7 -7 -5 -6 -6 -6 -7 -7 -7 -8 -9 -9 -9 -9 -8 -8 -8 -8 -8 -8 -8 -8 -8 -8 -8 -8 -9 -9 -9 -9 -10 -10
-8 -8 -8 -8 -8 -8 -9 -8 -8 -9 -9 -8 -8 -9 -5 -6 -6 -7 -7 -8 -8 -9 -9 -9 -9 -9 -8 -8 -8 -8 -8 -8 -8 -9 -9 -9 -9 -10 -10 -10 -10 -10 -10 -10
-8 -8 -8 -8 -9 -8 -9 -9 -9 -9 -9 -8 -9 -9 -6 -7 -8 -8 -8 -8 -8 -9 -9 -9 -9 -9 -9 -9 -9 -8 -8 -8 -9 -9 -9 -9 -10 -10 -10 -10 -10 -10 -10 -10
-7 -7 -8 -8 -8 -8 -9 -9 -10 -10 -9 -9 -10 -9 -7 -8 -8 -8 -8 -8 -9 -9 -9 -9 -10 -10 -10 -9 -9 -9 -9 -9 -9 -10 -10 -10 -10 -10 -10 -10 -11 -11 -10 -10
-8 -8 -8 -8 -9 -9 -9 -9 -11 -11 -10 -11 -9 -9 -8 -9 -10 -10 -9 -9 -10 -10 -10 -10 -12 -11 -10 -10 -10 -10 -9 -9 -10 -10 -10 -10 -11 -11 -11 -11 -11 -11 -11 -11
-8 -8 -8 -9 -9 -10 -10 -11 -11 -12 -13 -12 -11 -11 -10 -10 -11 -11 -11 -11 -10 -11 -13 -13 -13 -13 -12 -11 -11 -12 -10 -10 -10 -11 -11 -11 -11 -11 -11 -11 -11 -11 -11 -11
-9 -9 -9 -9 -9 -10 -10 -10 -11 -13 -15 -18 -15 -12 -12 -12 -13 -14 -13 -13 -12 -12 -12 -14 -14 -14 -13 -13 -12 -12 -12 -11 -10 -11 -12 -12 -12 -12 -12 -12 -12 -11 -11 -12
-10 -9 -9 -9 -10 -10 -10 -11 -12 -16 -15 -17 -22 -20 -15 -18 -18 -18 -17 -17 -15 -16 -16 -16 -15 -14 -14 -14 -13 -13 -13 -12 -11 -12 -12 -13 -13 -12 -12 -12 -12 -12 -12 -12
-10 -9 -9 -9 -9 -10 -11 -11 -12 -15 -20 -20 -24 -23 -21 -20 -21 -21 -20 -19 -19 -19 -19 -17 -16 -16 -15 -14 -14 -14 -14 -13 -13 -12 -13 -13 -13 -13 -13 -13 -12 -12 -12 -12
-10 -10 -11 -11 -11 -11 -11 -12 -13 -18 -22 -25 -25 -26 -25 -25 -23 -21 -21 -21 -20 -19 -18 -18 -17 -17 -16 -15 -15 -15 -15 -14 -14 -14 -14 -13 -13 -14 -14 -13 -13 -13 -13 -13
-11 -11 -11 -11 -12 -12 -14 -15 -20 -24 -26 -27 -27 -27 -26 -25 -24 -24 -23 -23 -21 -22 -20 -19 -18 -18 -16 -16 -16 -15 -16 -15 -14 -14 -14 -14 -14 -14 -14 -14 -13 -13 -13 -13
-11 -12 -12 -12 -12 -14 -16 -21 -25 -27 -27 -27 -26 -26 -26 -25 -25 -25 -25 -25 -24 -24 -23 -20 -19 -18 -18 -16 -16 -16 -16 -15 -15 -15 -15 -15 -15 -15 -14 -14 -14 -13 -13 -13
-12 -12 -12 -12 -14 -17 -21 -24 -26 -27 -27 -27 -26 -26 -26 -25 -25 -25 -25 -25 -25 -24 -23 -23 -22 -20 -19 -18 -17 -16 -16 -15 -15 -16 -15 -15 -15 -14 -14 -14 -14 -14 -14 -14
-12 -13 -13 -14 -19 -22 -25 -26 -27 -27 -26 -27 -27 -27 -26 -26 -26 -25 -25 -25 -25 -24 -24 -23 -23 -22 -20 -18 -17 -16 -16 -16 -15 -15 -15 -15 -15 -15 -14 -14 -14 -14 -14 -14
-14 -15 -17 -21 -23 -25 -25 -27 -27 -27 -26 -27 -27 -26 -26 -27 -27 -25 -26 -26 -25 -25 -24 -24 -23 -23 -22 -21 -20 -18 -17 -16 -15 -15 -15 -15 -15 -15 -15 -14 -14 -14 -14 -14
-15 -17 -22 -25 -27 -27 -26 -27 -27 -27 -26 -26 -27 -27 -27 -27 -26 -26 -26 -25 -25 -25 -24 -23 -23 -24 -23 -22 -20 -18 -17 -17 -16 -15 -15 -15 -15 -15 -15 -15 -15 -15 -14 -14
-17 -20 -23 -26 -27 -26 -26 -27 -26 -26 -26 -27 -27 -27 -27 -27 -27 -26 -26 -25 -25 -25 -24 -24 -23 -23 -23 -22 -21 -19 -17 -16 -17 -16 -15 -15 -15 -15 -15 -15 -15 -15 -15 -14
-21 -23 -25 -26 -27 -26 -27 -27 -26 -27 -26 -27 -27 -27 -27 -27 -27 -27 -27 -26 -26 -25 -25 -24 -24 -23 -23 -22 -21 -20 -19 -16 -17 -16 -16 -16 -15 -15 -15 -15 -15 -15 -15 -14
-22 -25 -26 -27 -27 -27 -27 -27 -27 -27 -27 -27 -27 -27 -27 -27 -27 -27 -27 -26 -26 -26 -25 -24 -24 -23 -22 -22 -20 -19 -19 -17 -16 -17 -16 -15 -15 -15 -15 -15 -15 -15 -15 -15
-24 -26 -27 -27 -27 -27 -27 -27 -27 -27 -27 -27 -27 -27 -28 -27 -27 -27 -27 -26 -26 -26 -25 -24 -24 -23 -22 -21 -20 -19 -18 -18 -16 -16 -16 -16 -15 -15 -15 -15 -15 -15 -15 -15
-26 -27 -27 -27 -27 -27 -27 -27 -27 -27 -27 -27 -27 -27 -27 -28 -28 -28 -27 -27 -27 -26 -25 -24 -24 -23 -22 -21 -20 -18 -18 -18 -17 -16 -16 -16 -15 -16 -16 -16 -15 -15 -15 -15
-27 -27 -27 -27 -28 -28 -28 -28 -28 -28 -27 -27 -27 -27 -27 -28 -27 -27 -27 -27 -27 -27 -26 -25 -24 -23 -23 -22 -19 -18 -17 -17 -17 -17 -16 -16 -16 -16 -16 -16 -15 -15 -15 -15
Height
5870 5872 5872 5868 5867 5864 5864 5863 5861 5866 5866 5856 5856 5853 5859 5866 5862 5863 5861 5860 5859 5859 5859 5857 5855 5852 5851 5850 5850 5849 5848 5849 5848 5848 5848 5848 5848 5847 5848 5849 5849 5849 5848 5848
5867 5868 5865 5864 5861 5859 5857 5855 5855 5855 5855 5851 5848 5847 5850 5854 5856 5853 5853 5852 5850 5849 5848 5844 5841 5839 5838 5838 5838 5837 5838 5837 5837 5836 5836 5836 5836 5837 5838 5839 5839 5838 5838 5839
5861 5861 5859 5856 5855 5852 5849 5846 5844 5841 5842 5843 5836 5833 5840 5844 5845 5846 5843 5841 5840 5836 5834 5832 5830 5827 5825 5824 5825 5824 5823 5824 5824 5824 5824 5825 5825 5827 5828 5829 5826 5827 5829 5828
5855 5853 5850 5849 5849 5842 5839 5838 5834 5830 5826 5827 5829 5817 5829 5831 5831 5831 5830 5827 5825 5821 5819 5818 5817 5815 5812 5811 5809 5809 5811 5812 5811 5811 5811 5813 5814 5815 5816 5815 5815 5817 5818 5817
5850 5846 5844 5842 5838 5836 5831 5828 5825 5822 5819 5815 5816 5813 5815 5815 5814 5813 5809 5810 5812 5810 5805 5800 5796 5796 5798 5796 5795 5794 5795 5797 5798 5799 5798 5799 5801 5803 5803 5803 5804 5806 5807 5807
5844 5840 5838 5835 5832 5826 5821 5816 5812 5809 5805 5803 5802 5793 5806 5807 5801 5794 5795 5795 5793 5785 5785 5785 5781 5778 5777 5777 5779 5778 5780 5783 5783 5784 5785 5787 5789 5790 5790 5792 5794 5794 5795 5796
5837 5834 5829 5826 5821 5816 5810 5803 5795 5791 5787 5787 5781 5775 5789 5791 5786 5781 5775 5773 5771 5770 5769 5769 5768 5764 5765 5765 5763 5763 5764 5767 5768 5769 5772 5774 5776 5777 5779 5781 5782 5783 5785 5785
5826 5825 5819 5813 5808 5802 5795 5787 5778 5768 5766 5764 5766 5759 5769 5768 5767 5764 5758 5750 5744 5743 5746 5752 5751 5750 5750 5750 5750 5750 5750 5752 5754 5755 5759 5762 5764 5765 5767 5770 5771 5773 5773 5773
5813 5812 5806 5801 5793 5787 5778 5769 5760 5747 5749 5732 5741 5734 5739 5743 5739 5738 5737 5735 5726 5724 5722 5726 5727 5732 5732 5732 5733 5736 5737 5737 5741 5743 5745 5749 5751 5753 5756 5757 5759 5761 5761 5761
5801 5792 5791 5787 5781 5772 5762 5751 5740 5731 5719 5706 5709 5707 5706 5714 5711 5709 5707 5707 5706 5704 5703 5707 5711 5713 5715 5717 5718 5720 5722 5723 5725 5728 5733 5736 5739 5741 5743 5745 5747 5749 5749 5750
5788 5782 5781 5770 5760 5749 5740 5729 5716 5704 5697 5678 5668 5672 5684 5682 5674 5672 5673 5670 5673 5677 5679 5680 5685 5690 5696 5699 5703 5704 5707 5709 5711 5712 5718 5723 5726 5728 5730 5733 5735 5737 5738 5739
5774 5768 5764 5757 5748 5734 5717 5704 5688 5671 5666 5659 5640 5632 5662 5648 5647 5643 5637 5636 5641 5650 5658 5660 5663 5669 5673 5678 5682 5685 5689 5694 5697 5700 5703 5707 5711 5714 5718 5721 5723 5725 5726 5728
5756 5750 5740 5738 5722 5714 5697 5686 5670 5654 5641 5630 5618 5604 5628 5626 5624 5612 5605 5611 5615 5623 5633 5641 5645 5650 5654 5660 5663 5667 5672 5676 5682 5686 5689 5692 5696 5701 5705 5708 5711 5713 5715 5717
5738 5735 5726 5714 5710 5697 5684 5671 5651 5634 5614 5605 5599 5591 5598 5595 5592 5591 5588 5586 5589 5591 5599 5608 5618 5624 5634 5640 5645 5649 5655 5660 5663 5670 5677 5680 5682 5687 5691 5695 5698 5701 5703 5705
5723 5718 5709 5695 5680 5665 5647 5633 5627 5615 5606 5593 5586 5584 5587 5581 5577 5574 5568 5562 5561 5566 5572 5580 5589 5596 5603 5615 5623 5630 5637 5644 5649 5655 5663 5667 5669 5672 5676 5681 5685 5688 5692 5693
5703 5696 5684 5678 5659 5640 5623 5617 5607 5600 5594 5588 5581 5576 5573 5572 5570 5564 5559 5553 5551 5549 5551 5558 5564 5572 5581 5589 5601 5608 5616 5625 5633 5640 5647 5653 5656 5659 5664 5668 5672 5677 5680 5682
5690 5672 5656 5649 5631 5615 5608 5606 5596 5589 5585 5579 5570 5569 5565 5563 5563 5557 5550 5546 5542 5538 5537 5539 5542 5551 5558 5565 5576 5587 5597 5607 5614 5624 5632 5639 5645 5649 5652 5655 5659 5666 5669 5670
5671 5656 5639 5621 5608 5599 5596 5598 5586 5578 5577 5571 5564 5558 5555 5549 5553 5548 5541 5534 5531 5528 5528 5527 5527 5531 5537 5544 5554 5566 5576 5585 5596 5605 5615 5623 5631 5637 5641 5644 5650 5653 5656 5659
5643 5629 5613 5602 5592 5583 5589 5585 5573 5569 5571 5562 5555 5551 5547 5541 5537 5543 5532 5527 5522 5519 5519 5518 5517 5517 5519 5525 5533 5542 5555 5567 5577 5589 5599 5609 5616 5623 5629 5633 5639 5643 5645 5648
5631 5615 5598 5591 5580 5573 5581 5574 5566 5561 5559 5554 5546 5541 5536 5531 5523 5529 5521 5519 5515 5510 5509 5508 5508 5506 5506 5512 5518 5525 5537 5551 5564 5573 5582 5592 5601 5609 5615 5620 5627 5631 5633 5636
5619 5607 5593 5582 5573 5571 5569 5563 5559 5553 5552 5547 5539 5532 5527 5522 5516 5514 5508 5507 5505 5501 5500 5500 5499 5498 5497 5499 5502 5509 5522 5536 5546 5556 5566 5576 5586 5596 5601 5607 5614 5618 5622 5625
5600 5588 5581 5573 5567 5565 5560 5555 5548 5544 5542 5534 5530 5524 5517 5514 5510 5506 5501 5495 5492 5490 5489 5489 5488 5488 5488 5487 5487 5495 5506 5516 5531 5545 5555 5564 5572 5582 5589 5595 5602 5607 5611 5614
5591 5579 5571 5565 5559 5556 5553 5544 5541 5533 5528 5527 5519 5516 5507 5503 5500 5496 5492 5488 5482 5479 5477 5476 5477 5478 5477 5476 5475 5485 5494 5505 5518 5531 5543 5549 5560 5569 5576 5584 5590 5595 5599 5602
5577 5567 5557 5551 5558 5544 5543 5538 5531 5527 5521 5515 5511 5503 5498 5490 5488 5483 5479 5476 5472 5468 5466 5466 5466 5467 5467 5465 5462 5470 5482 5494 5505 5519 5530 5539 5550 5559 5566 5572 5578 5583 5587 5590
5567 5555 5547 5543 5541 5537 5533 5527 5521 5518 5511 5506 5503 5495 5489 5482 5479 5472 5468 5464 5460 5456 5455 5456 5456 5457 5456 5453 5454 5463 5474 5485 5495 5509 5520 5531 5537 5545 5554 5560 5567 5571 5575 5580
5553 5546 5539 5533 5530 5522 5522 5517 5510 5506 5503 5498 5492 5490 5484 5473 5468 5464 5460 5456 5452 5448 5445 5446 5447 5446 5444 5444 5447 5456 5467 5477 5488 5500 5512 5523 5531 5537 5543 5550 5557 5561 5565 5569
Wind_Speed
25 24 25 30 33 36 37 39 41 36 36 45 45 47 44 39 44 45 46 46 45 44 40 41 44 46 46 46 45 45 45 42 43 42 43 43 45 46 45 44 42 41 42 41
24 23 27 29 34 36 38 40 40 41 40 45 47 45 45 43 42 46 47 48 48 47 46 47 49 51 51 50 49 48 46 44 44 45 45 46 48 47 46 44 42 45 43 41
26 27 28 32 34 38 40 43 45 47 46 45 52 49 46 45 45 44 46 46 46 48 50 51 52 53 54 54 53 51 51 48 47 49 48 48 48 46 46 44 46 46 41 41
26 28 30 32 33 39 41 42 46 48 51 50 48 53 43 46 47 47 46 47 49 51 51 51 50 52 54 55 56 55 52 50 50 50 49 49 48 48 47 47 48 44 40 43
23 25 25 25 29 31 36 40 43 45 48 50 51 56 45 50 52 52 55 53 49 48 47 49 50 53 54 57 58 57 56 54 53 52 52 50 48 47 48 49 47 43 42 43
24 27 30 33 36 40 46 49 52 54 57 59 58 61 51 55 57 60 57 58 56 54 53 51 53 54 54 54 56 58 58 53 51 50 51 47 45 46 49 48 46 44 41 43
33 34 38 39 46 48 53 58 63 64 65 66 68 72 62 61 63 63 65 65 64 60 60 57 55 57 55 56 56 56 56 54 49 50 50 46 44 47 49 47 45 42 42 44
42 43 46 51 54 57 61 65 69 75 75 77 76 79 75 75 74 73 72 73 73 72 67 60 58 57 55 57 56 57 52 54 52 49 45 44 45 47 46 45 43 42 45 46
49 49 52 54 60 64 66 73 74 80 83 87 88 92 89 86 83 80 78 74 76 76 73 65 51 47 58 58 57 55 55 55 53 51 48 46 46 46 45 46 46 46 47 47
54 59 58 63 64 67 71 75 79 79 84 92 99 99 101 97 93 89 83 80 78 78 78 69 49 46 51 53 55 50 55 57 54 51 48 47 47 47 49 49 47 48 48 46
58 61 62 69 70 76 81 88 89 90 88 78 93 108 105 97 88 84 81 81 80 78 78 72 63 54 55 56 57 55 54 56 55 54 47 44 46 48 49 48 47 48 47 44
61 64 68 70 73 81 89 98 101 94 96 92 67 81 93 82 73 71 74 76 77 72 65 54 46 45 47 48 56 59 57 57 57 54 51 49 50 52 51 49 46 47 46 43
66 70 77 78 85 96 99 100 103 97 82 84 67 76 64 66 70 75 80 78 79 76 68 59 54 48 46 53 62 59 58 59 57 56 54 52 52 52 49 47 46 47 45 43
70 73 77 84 87 94 99 102 104 89 79 62 60 59 55 51 55 66 81 85 83 80 80 75 76 81 71 60 61 54 49 60 60 58 56 55 54 47 47 48 48 47 43 42
72 76 81 87 92 99 100 100 77 54 50 51 54 51 39 32 33 36 47 58 71 72 76 69 73 64 59 69 65 54 48 54 60 59 55 55 51 49 51 50 48 46 42 40
76 80 86 88 95 96 94 68 46 40 40 43 46 46 45 34 34 37 39 44 47 55 56 74 76 66 65 70 74 69 64 59 61 62 57 57 55 54 53 53 49 44 41 39
78 85 92 96 95 89 71 43 36 40 41 45 49 46 45 43 39 41 44 45 44 34 38 41 54 69 64 67 71 78 69 75 60 57 60 57 60 57 56 55 51 43 40 39
80 87 93 97 81 69 51 29 39 45 43 45 46 46 44 46 42 43 41 41 35 40 44 37 40 48 65 67 65 70 65 62 66 60 57 62 53 57 56 56 50 44 41 38
85 88 85 70 59 56 51 36 42 42 35 38 44 44 44 45 45 36 43 44 44 39 37 40 29 34 40 67 57 58 63 63 65 67 60 58 53 57 57 56 53 46 44 40
83 84 69 53 46 49 36 33 36 39 38 38 44 43 43 43 45 37 40 38 38 42 41 37 37 30 35 40 52 57 57 66 63 59 63 62 60 58 56 56 53 48 46 42
75 68 57 44 46 45 31 33 35 40 37 37 40 38 38 39 38 35 34 35 37 34 41 42 36 33 30 37 44 71 57 64 55 55 55 56 53 55 54 54 52 48 43 40
66 59 44 44 43 37 30 35 41 43 38 45 43 39 40 39 35 34 35 37 36 34 32 35 37 37 34 34 41 56 53 51 58 55 52 52 54 53 52 50 46 43 39 40
56 47 43 41 38 34 32 39 39 42 46 43 45 47 47 45 42 41 41 40 40 37 33 33 34 34 35 37 36 45 49 46 57 57 59 54 51 49 50 48 45 41 40 39
47 38 42 45 37 42 39 39 41 42 43 44 46 44 43 46 43 45 44 43 41 40 36 33 32 27 29 35 34 34 42 56 51 59 56 49 47 51 50 46 44 39 36 35
37 41 44 45 44 44 42 41 38 47 41 43 37 39 38 39 37 36 32 35 38 39 34 31 28 29 32 27 30 32 38 43 53 57 50 52 47 44 38 34 35 37 35 34
40 43 41 41 43 46 42 43 47 42 38 36 36 32 35 38 37 37 38 37 37 39 35 27 26 31 37 32 28 35 33 48 41 44 43 51 40 38 38 36 38 33 35 37
Wind_Direction
276 280 280 277 278 278 277 278 278 281 276 269 268 268 269 265 267 270 270 269 269 272 271 269 269 267 266 267 267 267 266 268 268 270 268 267 266 267 270 271 272 272 273 277
286 290 285 286 285 287 288 287 288 286 283 280 280 274 277 276 273 272 273 275 276 274 272 270 267 268 269 268 267 268 269 267 266 266 264 263 262 264 267 270 270 269 272 276
291 292 289 286 288 290 289 292 292 291 289 286 287 279 281 279 282 280 279 279 277 273 271 270 269 270 270 272 272 270 267 266 265 265 265 265 266 266 266 267 266 268 271 273
295 294 292 293 297 291 294 293 294 295 295 296 294 287 283 290 288 283 277 274 273 273 273 273 270 268 268 269 268 269 269 268 266 265 264 265 263 263 263 263 264 267 269 271
302 303 305 305 299 300 302 302 299 297 296 297 296 294 286 298 298 291 285 281 276 276 274 272 269 266 267 267 267 265 264 264 264 262 260 260 261 261 260 260 263 266 267 269
305 307 308 309 309 305 305 305 304 302 299 296 297 295 286 298 294 295 295 292 286 278 272 267 267 266 263 262 263 265 265 262 260 258 255 254 254 256 257 259 261 263 265 268
300 302 303 305 305 305 307 308 306 302 302 301 298 296 296 298 298 294 291 287 283 277 276 273 267 265 266 266 263 261 262 262 257 257 257 253 248 249 252 257 259 261 264 269
306 302 304 305 306 306 307 308 306 304 302 299 296 296 298 296 296 292 289 286 282 281 277 272 266 264 261 261 263 264 259 259 256 253 254 252 250 250 251 254 257 260 265 269
306 306 305 307 308 307 306 305 305 301 301 297 299 298 295 297 293 290 285 280 278 278 280 277 267 258 259 260 261 258 256 254 252 250 249 248 247 248 250 252 257 262 266 269
304 304 303 305 305 305 305 303 302 299 298 298 300 297 296 296 294 290 284 278 273 269 270 266 253 252 256 256 259 253 251 250 247 246 245 247 246 246 249 254 258 262 264 266
303 302 306 307 305 304 303 303 303 302 300 296 297 297 301 299 291 285 282 276 271 265 264 268 266 263 245 245 254 250 251 252 246 241 239 240 244 247 249 253 257 258 262 264
301 300 303 304 304 303 304 306 306 304 303 297 278 285 298 288 283 275 273 270 269 269 266 253 243 238 235 244 242 240 239 244 246 239 236 235 240 244 248 252 253 256 260 264
302 305 307 308 308 306 307 305 304 302 300 296 290 288 284 273 265 262 261 260 260 259 251 240 235 233 236 236 233 230 233 236 240 238 233 233 236 243 247 249 250 254 260 265
302 303 303 304 304 304 304 303 302 302 298 298 288 295 297 295 280 265 259 258 258 258 254 249 246 244 239 229 225 225 233 235 234 237 237 233 233 238 244 247 249 254 258 263
301 301 303 305 307 307 306 305 306 297 291 293 298 300 294 296 301 292 278 272 267 269 255 248 248 246 244 225 229 222 232 237 235 235 231 231 231 234 242 245 249 252 257 263
302 305 305 307 308 308 307 309 304 298 298 294 295 304 302 290 302 304 302 292 292 279 271 262 246 243 241 228 224 228 237 237 233 235 230 233 231 234 240 246 250 252 256 260
306 308 309 310 310 309 308 316 304 298 300 304 303 303 303 295 295 299 302 302 296 300 286 273 265 253 246 240 227 228 232 233 221 227 231 234 241 242 244 248 252 256 258 254
309 311 312 311 312 308 311 321 302 300 302 302 299 298 299 298 296 292 298 298 305 301 290 282 268 256 252 237 231 227 228 235 225 218 224 229 236 244 248 255 257 256 256 254
316 316 314 312 310 306 316 312 303 300 317 303 300 303 304 300 300 295 290 297 297 301 295 293 296 275 255 252 248 238 227 231 230 221 224 228 232 239 246 253 258 257 256 257
316 317 314 312 303 304 325 301 297 303 319 316 312 308 305 303 298 300 284 286 295 294 297 291 294 291 276 255 248 240 232 225 227 231 228 227 231 239 246 250 254 255 257 259
318 317 310 302 301 308 308 299 303 303 321 318 317 312 311 308 309 315 302 290 288 296 290 291 283 282 287 264 242 242 226 215 217 226 231 229 226 233 241 247 252 256 257 259
320 317 307 298 304 313 302 299 299 306 313 315 315 315 307 306 303 306 309 308 295 286 283 287 285 279 278 288 241 243 231 216 207 219 222 225 224 231 238 246 252 256 259 259
323 314 304 297 303 307 301 299 300 302 307 308 309 313 308 304 300 301 299 299 296 290 289 290 288 276 280 287 258 229 237 222 204 218 222 218 225 231 236 240 247 251 259 259
323 310 297 290 297 302 303 300 300 304 305 307 310 313 307 304 304 301 298 296 293 290 286 288 278 285 276 279 251 224 224 231 208 217 217 224 228 228 231 237 246 250 251 252
316 301 297 298 299 300 301 298 293 302 305 307 308 310 315 313 314 313 307 302 298 293 282 285 284 277 284 267 229 205 216 219 211 213 212 219 218 223 232 241 244 247 248 251
306 304 305 303 300 302 303 299 296 298 302 303 306 308 313 316 315 311 309 304 301 303 290 283 277 278 291 291 216 207 211 210 215 209 213 220 226 234 238 243 247 248 251 252